Regional Weather Roundup
Issued by NWS Charleston, WV

Home | Current Version | Previous Version | Graphics & Text | Print | Product List | Glossary On
Versions: 1 2 3 4 5 6 7 8 9 10 11 12 13 14 15 16 17 18 19 20 21 22 23 24 25 26 27 28 29 30 31 32 33 34 35 36 37 38 39 40 41 42 43 44 45 46 47 48 49 50
000
ASUS41 KRLX 010610
RWRRLX
West Virginia Regional Weather Roundup
National Weather Service Charleston WV
100 AM EST SUN FEB 01 2015

Note: "fair" indicates few or no clouds below 12,000 feet with no
significant weather and/or obstructions to visibility.

WVZ003-010700-
Northern Panhandle of West Virginia

CITY           SKY/WX    TMP DP  RH WIND       PRES   REMARKS
WHEELING       CLOUDY    27  16  63 S7        30.19F
$$

WVZ009-010700-
Northwest West Virginia

CITY           SKY/WX    TMP DP  RH WIND       PRES   REMARKS
PARKERSBURG    CLOUDY    32  19  58 CALM      30.26F
$$

WVZ006-010700-
Western West Virginia

CITY           SKY/WX    TMP DP  RH WIND       PRES   REMARKS
HUNTINGTON     CLOUDY    31  23  72 E5        30.22F
$$

WVZ015-010700-
West Central West Virginia

CITY           SKY/WX    TMP DP  RH WIND       PRES   REMARKS
CHARLESTON     CLOUDY    31  22  69 CALM      30.24F
$$

WVZ022-031-010700-
North Central West Virginia

CITY           SKY/WX    TMP DP  RH WIND       PRES   REMARKS
CLARKSBURG     CLOUDY    26  17  68 S5        30.22F
MORGANTOWN     MOCLDY    26  12  55 CALM      30.22F
$$

WVZ025-035-042-045-010700-
Southern West Virginia

CITY           SKY/WX    TMP DP  RH WIND       PRES   REMARKS
BECKLEY        CLOUDY    31  10  41 SW6       30.21S
LOGAN          CLOUDY    34  16  47 CALM      30.21F
BLUEFIELD      CLOUDY    34  12  40 W7        30.20F
LEWISBURG      CLOUDY    32   9  37 CALM      30.20F
$$

WVZ047-010700-
Northern Mountains of West Virginia

CITY           SKY/WX    TMP DP  RH WIND       PRES   REMARKS
ELKINS         CLOUDY    21  18  88 CALM      30.21S
$$

WVZ052-010700-
Eastern Panhandle of West Virginia

CITY           SKY/WX    TMP DP  RH WIND       PRES   REMARKS
MARTINSBURG    PTCLDY    21  10  62 E3        30.24F
PETERSBURG     MOCLDY    27  16  63 E3        30.23S
$$


USA.gov is the U.S. government's official web portal to all federal, state and local government web resources and services.